EA1BIS-13 Weather Reports


time (UTC)temp
C
wind
direction
speed
KPH
gust
KPH
rain 1hr
cm
rain 24hr
cm
rain mn
cm
humidity
%
barometer
mb
20260508035926 5 32 0.0 0.0 0.00 0.00 0.00 91 1010.0
20260508034436 5 31 0.0 0.0 0.00 0.00 0.00 91 1010.1
20260508032928 5 31 0.0 0.0 0.00 0.00 0.00 90 1010.1
20260508031420 5 31 0.0 0.0 0.00 0.00 0.00 90 1010.3
20260508025931 6 32 0.0 0.0 0.00 0.00 0.00 89 1010.3
20260508024422 6 32 0.0 0.0 0.00 0.00 0.00 90 1010.4
20260508022934 6 32 0.0 0.0 0.00 0.00 0.00 89 1010.6
20260508021424 6 31 0.0 0.0 0.00 0.00 0.00 89 1010.7
20260508015920 7 31 0.0 0.0 0.00 0.00 0.00 89 1011.0
20260508014447 7 31 0.0 0.0 0.00 0.00 0.00 88 1011.0
20260508012921 7 32 0.0 0.0 0.00 0.00 0.00 87 1011.2
20260508011434 7 31 0.0 0.0 0.00 0.00 0.00 87 1011.4
20260508005952 8 31 0.0 0.0 0.00 0.00 0.00 86 1011.5
20260508004424 8 32 0.0 0.0 0.00 0.00 0.00 84 1011.5
20260508002935 8 31 0.0 0.0 0.00 0.00 0.00 84 1011.4
20260508001444 8 31 0.0 0.0 0.00 0.00 0.00 83 1011.5
20260507235938 8 31 0.0 0.0 0.00 0.00 0.00 82 1011.6
20260507234428 8 31 0.0 1.6 0.00 0.00 0.00 81 1011.4
20260507232917 8 16 0.0 1.6 0.00 0.00 0.00 82 1011.8
20260507231428 8 16 0.0 0.0 0.00 0.00 0.00 81 1011.9
20260507225921 8 52 0.0 1.6 0.00 0.00 0.00 81 1011.8
20260507224431 8 53 0.0 1.6 0.00 0.00 0.00 80 1012.0
20260507222941 8 34 0.0 0.0 0.00 0.00 0.00 79 1012.0
20260507221431 9 34 0.0 1.6 0.00 0.00 0.00 78 1011.9
20260507215922 9 37 0.0 0.0 0.00 0.00 0.00 79 1012.0
20260507214434 9 38 0.0 0.0 0.00 0.00 0.00 78 1011.9
20260507212917 9 39 0.0 0.0 0.00 0.00 0.00 78 1011.9
20260507211428 9 332 0.0 1.6 0.00 0.00 0.00 79 1011.9
20260507205919 9 208 0.0 1.6 0.00 0.00 0.00 79 1011.8
20260507204451 8 211 0.0 0.0 0.00 0.00 0.00 80 1011.7
20260507202922 9 213 0.0 0.0 0.00 0.00 0.00 79 1011.3
20260507201453 9 212 0.0 0.0 0.00 0.00 0.00 77 1011.0
20260507195924 10 212 0.0 1.6 0.00 0.00 0.00 75 1010.9
20260507194416 10 212 0.0 1.6 0.00 0.00 0.00 74 1010.8
20260507192928 11 107 0.0 0.0 0.00 0.00 0.00 71 1010.6
20260507191420 12 107 0.0 1.6 0.00 0.00 0.00 71 1010.4
20260507185931 12 142 0.0 0.0 0.00 0.00 0.00 70 1010.2
20260507184424 13 142 0.0 3.2 0.00 0.00 0.00 61 1010.3
20260507182915 13 129 0.0 8.0 0.00 0.00 0.00 58 1010.0
20260507181427 13 183 1.6 9.7 0.00 0.00 0.00 57 1009.8
20260507175922 13 217 4.8 16.1 0.00 0.00 0.00 55 1009.4
20260507174434 15 212 0.0 6.4 0.00 0.00 0.00 53 1009.1
20260507172927 15 229 0.0 6.4 0.00 0.00 0.00 52 1008.9
20260507171418 16 41 1.6 17.7 0.00 0.00 0.00 51 1009.0
20260507165930 16 120 3.2 12.9 0.00 0.00 0.00 47 1008.9
20260507164422 16 233 8.0 14.5 0.00 0.00 0.00 49 1008.7
20260507162954 16 221 6.4 12.9 0.00 0.00 0.00 44 1008.6
20260507161424 17 163 3.2 9.7 0.00 0.00 0.00 43 1008.6
20260507155937 16 145 1.6 11.3 0.00 0.00 0.00 44 1008.6
20260507154448 17 219 4.8 12.9 0.00 0.00 0.00 44 1008.7
20260507152916 17 141 6.4 12.9 0.00 0.00 0.00 42 1008.6
20260507151448 17 135 6.4 11.3 0.00 0.00 0.00 42 1008.6
20260507145956 17 207 4.8 14.5 0.00 0.00 0.00 44 1008.6
20260507144425 17 131 0.0 8.0 0.00 0.00 0.00 44 1008.8
20260507142937 17 134 3.2 12.9 0.00 0.00 0.00 42 1009.1
20260507141429 17 207 4.8 12.9 0.00 0.00 0.00 48 1009.1
20260507135918 15 179 1.6 6.4 0.00 0.00 0.00 47 1009.3
20260507134429 16 138 3.2 11.3 0.00 0.00 0.00 46 1009.4
20260507132922 17 152 1.6 16.1 0.00 0.00 0.00 44 1009.4
20260507131433 17 146 0.0 8.0 0.00 0.00 0.00 44 1009.5
20260507124425 16 222 9.7 17.7 0.00 0.00 0.00 45 1009.9
20260507122916 16 196 1.6 6.4 0.00 0.00 0.00 49 1010.1
20260507121428 16 191 4.8 9.7 0.00 0.00 0.00 46 1010.3
20260507115920 15 284 1.6 8.0 0.00 0.00 0.00 50 1010.4
20260507114416 15 215 3.2 8.0 0.00 0.00 0.00 49 1010.7
20260507112928 15 217 0.0 9.7 0.00 0.00 0.00 51 1010.7
20260507111420 16 259 1.6 4.8 0.00 0.00 0.00 52 1010.8
20260507105932 16 136 0.0 1.6 0.00 0.00 0.00 51 1010.8
20260507104424 15 136 1.6 8.0 0.00 0.00 0.00 54 1011.0
20260507102935 14 181 1.6 4.8 0.00 0.00 0.00 55 1011.1
20260507101448 15 75 0.0 8.0 0.00 0.00 0.00 55 1011.1
20260507095918 15 120 0.0 3.2 0.00 0.00 0.00 56 1011.3
20260507094451 13 248 0.0 6.4 0.00 0.00 0.00 61 1011.3
20260507092930 13 217 1.6 4.8 0.00 0.00 0.00 59 1011.4
20260507091420 13 215 0.0 4.8 0.00 0.00 0.00 63 1011.5
20260507085932 12 239 1.6 6.4 0.00 0.00 0.00 65 1011.4
20260507084425 12 194 0.0 1.6 0.00 0.00 0.00 66 1011.6
20260507082916 12 49 0.0 1.6 0.00 0.00 0.00 65 1011.6
20260507081429 11 121 0.0 6.4 0.00 0.00 0.00 70 1011.7
20260507075919 10 273 0.0 0.0 0.00 0.00 0.00 78 1011.7
20260507074430 8 238 0.0 0.0 0.00 0.00 0.00 86 1011.7
20260507072921 7 208 0.0 0.0 0.00 0.00 0.00 89 1011.8
20260507071434 6 207 0.0 1.6 0.00 0.00 0.00 90 1011.9
20260507065923 6 208 0.0 1.6 0.00 0.00 0.00 91 1011.9
20260507064416 6 179 0.0 0.0 0.00 0.00 0.00 91 1012.0
20260507062925 5 179 0.0 1.6 0.00 0.00 0.00 92 1012.1
20260507061437 4 186 0.0 0.0 0.00 0.00 0.00 93 1012.1
20260507055926 4 186 0.0 0.0 0.00 0.00 0.00 93 1012.0
20260507054418 4 186 0.0 1.6 0.00 0.00 0.00 93 1011.9
20260507052930 4 195 0.0 1.6 0.00 0.00 0.00 93 1011.9
20260507051422 3 195 0.0 0.0 0.00 0.00 0.00 93 1012.0
20260507045933 3 195 0.0 0.0 0.00 0.00 0.00 93 1012.0
20260507044424 3 195 0.0 0.0 0.00 0.00 0.00 92 1012.0
20260507042920 3 195 0.0 0.0 0.00 0.00 0.00 93 1011.9
20260507041432 3 195 0.0 0.0 0.00 0.00 0.00 92 1012.1